TimePDT,TemperatureF,Dew PointF,Humidity,Sea Level PressureIn,VisibilityMPH,Wind Direction,Wind SpeedMPH,Gust SpeedMPH,PrecipitationIn,Events,Conditions,WindDirDegrees,DateUTC
12:15 AM,19.4,14.0,80,30.39,10.0,West,4.6,-,N/A,,Clear,270,2013-03-10 08:15:00
12:35 AM,21.2,15.8,80,30.41,10.0,NNE,4.6,-,N/A,,Clear,30,2013-03-10 08:35:00
12:55 AM,21.2,15.8,80,30.42,10.0,SSE,5.8,-,N/A,,Clear,150,2013-03-10 08:55:00
1:15 AM,17.6,12.2,79,30.42,10.0,Calm,Calm,-,N/A,,Clear,0,2013-03-10 09:15:00
1:35 AM,19.4,14.0,80,30.42,10.0,Calm,Calm,-,N/A,,Clear,0,2013-03-10 09:35:00
1:55 AM,17.6,12.2,79,30.42,10.0,Calm,Calm,-,N/A,,Clear,0,2013-03-10 09:55:00
3:15 AM,17.6,12.2,79,30.42,10.0,Calm,Calm,-,N/A,,Clear,0,2013-03-10 10:15:00
3:35 AM,17.6,12.2,79,30.42,10.0,East,6.9,-,N/A,,Clear,90,2013-03-10 10:35:00
3:55 AM,14.0,10.4,86,30.43,10.0,Calm,Calm,-,N/A,,Clear,0,2013-03-10 10:55:00
4:15 AM,15.8,10.4,79,30.43,10.0,WSW,3.5,-,N/A,,Clear,240,2013-03-10 11:15:00
4:35 AM,15.8,10.4,79,30.44,10.0,Calm,Calm,-,N/A,,Clear,0,2013-03-10 11:35:00
4:55 AM,14.0,10.4,86,30.43,10.0,South,3.5,-,N/A,,Clear,170,2013-03-10 11:55:00
5:15 AM,14.0,10.4,86,30.44,10.0,West,3.5,-,N/A,,Clear,280,2013-03-10 12:15:00
5:35 AM,14.0,10.4,86,30.44,10.0,East,4.6,-,N/A,,Clear,90,2013-03-10 12:35:00
5:55 AM,14.0,10.4,86,30.43,10.0,WSW,4.6,-,N/A,,Clear,250,2013-03-10 12:55:00
6:15 AM,14.0,10.4,86,30.43,10.0,Calm,Calm,-,N/A,,Clear,0,2013-03-10 13:15:00
6:35 AM,12.2,8.6,85,30.43,10.0,Calm,Calm,-,N/A,,Clear,0,2013-03-10 13:35:00
6:55 AM,12.2,8.6,85,30.43,10.0,Calm,Calm,-,N/A,,Clear,0,2013-03-10 13:55:00
7:50 AM,14.0,10.4,86,30.43,10.0,Calm,Calm,-,N/A,,Clear,0,2013-03-10 14:50:00
8:55 AM,19.4,14.0,80,30.45,10.0,Calm,Calm,-,N/A,,Partly Cloudy,0,2013-03-10 15:55:00
10:50 AM,33.8,12.2,41,30.43,10.0,NW,3.5,-,N/A,,Scattered Clouds,320,2013-03-10 17:50:00
11:50 AM,39.2,14.0,36,30.40,10.0,NNW,4.6,-,N/A,,Scattered Clouds,340,2013-03-10 18:50:00
12:50 PM,44.6,15.8,31,30.39,10.0,North,9.2,-,N/A,,Scattered Clouds,360,2013-03-10 19:50:00
1:50 PM,46.4,15.8,29,30.37,10.0,North,5.8,-,N/A,,Scattered Clouds,360,2013-03-10 20:50:00
2:50 PM,50.0,14.0,24,30.35,10.0,North,6.9,-,N/A,,Scattered Clouds,10,2013-03-10 21:50:00
3:55 PM,50.0,15.8,26,30.35,10.0,NNE,8.1,-,N/A,,Scattered Clouds,20,2013-03-10 22:55:00
4:50 PM,50.0,14.0,24,30.36,10.0,NE,6.9,-,N/A,,Scattered Clouds,40,2013-03-10 23:50:00
5:55 PM,50.0,14.0,24,30.34,10.0,NNE,3.5,-,N/A,,Clear,20,2013-03-11 00:55:00
6:15 PM,50.0,14.0,24,30.35,10.0,NNE,4.6,-,N/A,,Clear,30,2013-03-11 01:15:00
6:35 PM,48.2,15.8,27,30.36,10.0,NNE,5.8,-,N/A,,Clear,30,2013-03-11 01:35:00
6:55 PM,46.4,10.4,23,30.36,10.0,NNE,4.6,-,N/A,,Clear,30,2013-03-11 01:55:00
7:15 PM,41.0,17.6,39,30.37,10.0,Calm,Calm,-,N/A,,Clear,0,2013-03-11 02:15:00
7:35 PM,41.0,19.4,42,30.37,10.0,SW,3.5,-,N/A,,Clear,230,2013-03-11 02:35:00
7:55 PM,35.6,21.2,56,30.37,10.0,SSE,3.5,-,N/A,,Clear,160,2013-03-11 02:55:00
8:15 PM,33.8,21.2,60,30.38,10.0,SSE,6.9,-,N/A,,Clear,160,2013-03-11 03:15:00
8:35 PM,32.0,23.0,69,30.38,10.0,Calm,Calm,-,N/A,,Clear,0,2013-03-11 03:35:00
8:55 PM,32.0,23.0,69,30.38,10.0,SSE,3.5,-,N/A,,Clear,160,2013-03-11 03:55:00
9:15 PM,33.8,19.4,56,30.39,10.0,South,4.6,-,N/A,,Clear,170,2013-03-11 04:15:00
9:35 PM,32.0,21.2,64,30.39,10.0,South,4.6,-,N/A,,Clear,180,2013-03-11 04:35:00
9:55 PM,30.2,19.4,64,30.39,10.0,West,3.5,-,N/A,,Clear,270,2013-03-11 04:55:00
10:15 PM,28.4,21.2,74,30.40,10.0,Calm,Calm,-,N/A,,Clear,0,2013-03-11 05:15:00
10:35 PM,28.4,19.4,69,30.40,10.0,South,3.5,-,N/A,,Clear,190,2013-03-11 05:35:00
10:55 PM,26.6,19.4,74,30.40,10.0,Calm,Calm,-,N/A,,Clear,0,2013-03-11 05:55:00
11:15 PM,28.4,19.4,69,30.40,10.0,Calm,Calm,-,N/A,,Clear,0,2013-03-11 06:15:00
11:35 PM,26.6,19.4,74,30.39,10.0,Calm,Calm,-,N/A,,Clear,0,2013-03-11 06:35:00
11:55 PM,26.6,17.6,69,30.39,10.0,Calm,Calm,-,N/A,,Clear,0,2013-03-11 06:55:00
12:15 AM,26.6,17.6,69,30.38,8.0,Calm,Calm,-,N/A,,Clear,0,2013-03-11 07:15:00
12:35 AM,26.6,17.6,69,30.39,10.0,Calm,Calm,-,N/A,,Clear,0,2013-03-11 07:35:00
12:55 AM,24.8,17.6,74,30.39,10.0,Calm,Calm,-,N/A,,Clear,0,2013-03-11 07:55:00